WB8HRV Weather Reports


time (UTC)temp
C
wind
direction
speed
KPH
gust
KPH
rain 1hr
cm
rain 24hr
cm
rain mn
cm
humidity
%
barometer
mb
20260507124824 8 302 1.6 11.3 0.00 0.00 0.00 72 1015.0
20260507123824 7 260 0.0 3.2 0.00 0.00 0.00 80 1015.0
20260507122826 7 260 0.0 1.6 0.00 0.00 0.00 84 1014.9
20260507121824 6 260 0.0 0.0 0.00 0.00 0.00 88 1015.1
20260507120822 6 259 0.0 0.0 0.00 0.00 0.00 90 1015.0
20260507115823 6 259 0.0 0.0 0.00 0.00 0.00 90 1015.0
20260507114823 6 265 0.0 0.0 0.00 0.00 0.00 91 1015.1
20260507113821 6 265 0.0 0.0 0.00 0.00 0.00 91 1015.0
20260507112822 5 265 0.0 0.0 0.00 0.00 0.00 91 1015.0
20260507111822 4 265 0.0 0.0 0.00 0.00 0.00 91 1015.0
20260507110820 4 265 0.0 0.0 0.00 0.00 0.00 91 1014.9
20260507105821 3 265 0.0 0.0 0.00 0.00 0.00 91 1014.7
20260507104819 3 267 0.0 0.0 0.00 0.00 0.00 90 1014.6
20260507104303 3 267 0.0 0.0 0.00 0.00 0.00 90 1014.5
20260507103254 3 267 0.0 0.0 0.00 0.00 0.00 90 1014.4
20260507101816 3 267 0.0 0.0 0.00 0.00 0.00 90 1014.4
20260507100817 3 267 0.0 0.0 0.00 0.00 0.00 90 1014.4
20260507100259 3 267 0.0 0.0 0.00 0.00 0.00 90 1014.4
20260507094816 3 267 0.0 0.0 0.00 0.00 0.00 90 1014.4
20260507093816 4 267 0.0 0.0 0.00 0.00 0.00 90 1014.5
20260507092816 4 267 0.0 0.0 0.00 0.00 0.00 90 1014.4
20260507091816 4 267 0.0 0.0 0.00 0.00 0.00 90 1014.2
20260507090816 4 267 0.0 0.0 0.00 0.00 0.00 90 1014.2
20260507085817 4 267 0.0 0.0 0.00 0.00 0.00 90 1014.2
20260507085311 4 267 0.0 0.0 0.00 0.00 0.00 90 1014.0
20260507083816 4 267 0.0 0.0 0.00 0.00 0.00 89 1014.0
20260507082815 5 267 0.0 0.0 0.00 0.03 0.00 89 1014.0
20260507081812 5 267 0.0 0.0 0.00 0.03 0.00 89 1013.9
20260507080813 5 267 0.0 0.0 0.00 0.03 0.00 89 1013.7
20260507075811 5 267 0.0 0.0 0.00 0.03 0.00 89 1013.7
20260507074811 5 267 0.0 0.0 0.00 0.03 0.00 89 1013.7
20260507073809 5 267 0.0 0.0 0.00 0.03 0.00 89 1013.7
20260507072809 5 267 0.0 0.0 0.00 0.08 0.00 89 1013.7
20260507071811 5 267 0.0 0.0 0.00 0.13 0.00 88 1013.7
20260507070809 5 267 0.0 0.0 0.00 0.15 0.00 89 1013.7
20260507065810 5 267 0.0 0.0 0.00 0.20 0.00 88 1013.6
20260507064807 6 267 0.0 0.0 0.00 0.23 0.00 88 1013.9
20260507063810 6 267 0.0 0.0 0.00 0.23 0.00 88 1014.0
20260507062809 6 267 0.0 0.0 0.00 0.25 0.00 88 1014.1
20260507061809 6 267 0.0 0.0 0.00 0.25 0.00 88 1014.0
20260507060808 6 267 0.0 0.0 0.00 0.28 0.00 87 1013.9
20260507060729 6 267 0.0 0.0 0.00 0.30 0.00 87 1013.9
20260507054809 6 267 0.0 0.0 0.00 0.33 0.00 87 1014.0
20260507053808 6 267 0.0 0.0 0.00 0.38 0.00 87 1014.0
20260507052808 6 267 0.0 0.0 0.00 0.41 0.00 87 1014.1
20260507052243 6 267 0.0 0.0 0.00 0.43 0.00 86 1014.0
20260507050805 6 267 0.0 0.0 0.00 0.56 0.00 86 1014.1
20260507045806 6 267 0.0 0.0 0.00 0.64 0.00 85 1014.2
20260507045245 7 267 0.0 0.0 0.00 0.69 0.00 85 1014.3
20260507043806 7 267 0.0 0.0 0.00 0.76 0.00 85 1014.3
20260507043730 7 267 0.0 0.0 0.00 0.79 0.00 85 1014.1
20260507041806 7 267 0.0 0.0 0.00 0.84 0.00 84 1014.3
20260507040804 7 267 0.0 0.0 0.00 0.86 0.00 84 1014.2
20260507035805 7 267 0.0 0.0 0.00 0.89 0.89 83 1014.2
20260507034806 7 267 0.0 1.6 0.00 0.89 0.89 83 1014.2
20260507033805 7 267 0.0 0.0 0.00 0.91 0.89 82 1014.3
20260507032804 8 267 0.0 0.0 0.00 0.91 0.89 81 1014.2
20260507031804 8 267 0.0 0.0 0.00 0.91 0.89 81 1014.3
20260507030804 8 267 0.0 0.0 0.00 0.91 0.89 80 1014.4
20260507025802 8 267 0.0 0.0 0.00 0.91 0.89 79 1014.4
20260507024801 8 267 0.0 0.0 0.00 0.91 0.89 79 1014.4
20260507023759 9 267 0.0 0.0 0.00 0.94 0.89 78 1014.3
20260507022800 9 267 0.0 0.0 0.00 0.94 0.89 77 1014.2
20260507021803 9 267 0.0 0.0 0.00 0.94 0.89 76 1014.2
20260507020803 10 267 0.0 0.0 0.00 0.94 0.89 75 1014.2
20260507015803 10 267 0.0 0.0 0.00 0.97 0.89 74 1014.1
20260507014801 10 267 0.0 0.0 0.00 0.99 0.89 73 1014.2
20260507014243 10 267 0.0 0.0 0.00 1.02 0.89 73 1014.0
20260507012757 11 267 0.0 0.0 0.00 1.02 0.89 72 1013.4
20260507011758 11 267 0.0 0.0 0.00 1.04 0.89 71 1013.4
20260507011241 12 267 0.0 0.0 0.00 1.09 0.89 68 1013.3
20260507005803 12 267 0.0 0.0 0.00 1.22 0.89 67 1013.4
20260507004758 12 267 0.0 0.0 0.00 1.27 0.89 65 1013.3
20260507003754 13 267 0.0 1.6 0.00 1.30 0.89 62 1013.3
20260507002751 13 267 0.0 4.8 0.00 1.30 0.89 61 1013.1
20260507001753 13 267 1.6 4.8 0.00 1.30 0.89 59 1013.0
20260507000755 13 318 3.2 9.7 0.00 1.30 0.89 57 1013.0
20260506235751 13 310 4.8 14.5 0.00 1.30 0.89 56 1012.9
20260506234751 14 0 3.2 8.0 0.00 1.32 0.89 55 1012.6
20260506233749 13 296 3.2 11.3 0.00 1.32 0.89 55 1012.7
20260506232750 14 276 4.8 16.1 0.00 1.35 0.89 55 1012.5
20260506231749 14 319 6.4 14.5 0.00 1.35 0.89 56 1012.3
20260506230751 14 335 4.8 17.7 0.00 1.35 0.89 55 1012.2
20260506225750 14 17 3.2 12.9 0.00 1.35 0.89 55 1012.4
20260506224751 14 277 3.2 14.5 0.00 1.35 0.89 55 1012.4
20260506223746 14 309 1.6 8.0 0.00 1.35 0.89 55 1012.5
20260506222747 14 320 4.8 12.9 0.00 1.35 0.89 54 1012.8
20260506221746 14 296 3.2 14.5 0.00 1.35 0.89 54 1012.9
20260506220748 14 282 4.8 14.5 0.00 1.35 0.89 53 1013.0
20260506215747 14 291 4.8 17.7 0.00 1.35 0.89 53 1012.9
20260506214749 14 312 4.8 14.5 0.00 1.37 0.89 54 1013.0
20260506213746 14 256 6.4 19.3 0.00 1.37 0.89 54 1012.8
20260506212744 14 288 4.8 16.1 0.00 1.37 0.89 54 1012.8
20260506211744 14 306 3.2 12.9 0.00 1.37 0.89 54 1012.8
20260506210746 15 250 3.2 11.3 0.00 1.40 0.89 54 1012.3
20260506205740 15 58 3.2 14.5 0.00 1.42 0.89 53 1012.2
20260506204739 15 306 3.2 11.3 0.00 1.45 0.89 53 1012.2
20260506203740 15 323 4.8 14.5 0.00 1.50 0.89 52 1012.3
20260506203701 14 5 4.8 16.1 0.00 1.52 0.89 51 1012.5
20260506201738 14 295 4.8 16.1 0.00 1.55 0.89 51 1012.5
20260506201704 14 293 4.8 14.5 0.00 1.55 0.89 52 1012.6
20260506200235 14 342 3.2 14.5 0.00 1.60 0.89 52 1012.6
20260506195216 14 5 4.8 16.1 0.00 1.63 0.89 51 1012.5
20260506193734 14 333 4.8 16.1 0.00 1.70 0.89 51 1012.5
20260506192733 15 265 4.8 19.3 0.00 1.70 0.89 52 1012.2
20260506191734 15 339 4.8 19.3 0.00 1.70 0.89 54 1012.2
20260506190733 15 323 6.4 19.3 0.00 1.70 0.89 53 1012.2
20260506185731 15 292 3.2 16.1 0.00 1.70 0.89 51 1012.0
20260506184729 15 267 4.8 19.3 0.00 1.70 0.89 53 1012.1
20260506183728 15 275 3.2 17.7 0.00 1.70 0.89 53 1012.0
20260506182729 15 17 3.2 14.5 0.00 1.70 0.89 55 1011.9
20260506181729 15 255 3.2 20.9 0.00 1.70 0.89 56 1012.1
20260506180730 14 230 3.2 14.5 0.00 1.70 0.89 54 1012.1
20260506175728 14 272 3.2 16.1 0.00 1.70 0.89 55 1012.2
20260506174730 14 29 3.2 17.7 0.00 1.70 0.89 54 1012.4
20260506173727 14 289 3.2 12.9 0.00 1.70 0.89 56 1012.3
20260506172726 13 295 4.8 17.7 0.00 1.70 0.89 55 1012.4
20260506171726 13 292 3.2 16.1 0.00 1.70 0.89 54 1012.5
20260506170727 13 269 3.2 20.9 0.00 1.70 0.89 55 1012.7
20260506165726 13 355 6.4 19.3 0.00 1.70 0.89 57 1012.6
20260506164726 13 269 4.8 19.3 0.00 1.70 0.89 56 1012.7
20260506163727 13 321 3.2 16.1 0.00 1.70 0.89 57 1012.6
20260506163210 13 344 4.8 17.7 0.00 1.70 0.89 59 1012.6
20260506161726 13 277 4.8 16.1 0.00 1.70 0.89 57 1012.8
20260506160727 12 321 4.8 20.9 0.00 1.70 0.89 58 1012.6
20260506155727 12 306 6.4 16.1 0.00 1.70 0.89 61 1012.4
20260506155204 12 341 4.8 17.7 0.00 1.70 0.89 61 1012.4
20260506153726 12 326 3.2 19.3 0.00 1.70 0.89 64 1012.3
20260506152727 11 329 3.2 12.9 0.00 1.70 0.89 65 1012.6
20260506151726 11 12 4.8 12.9 0.00 1.70 0.89 66 1012.5
20260506151211 11 305 4.8 14.5 0.00 1.70 0.89 67 1012.2
20260506145726 10 22 4.8 12.9 0.00 1.73 0.89 70 1012.2
20260506144727 11 351 3.2 17.7 0.00 1.73 0.89 74 1011.8
20260506143727 10 306 4.8 17.7 0.00 1.73 0.89 73 1011.6
20260506142726 10 332 4.8 16.1 0.00 1.73 0.89 74 1011.4
20260506141727 10 306 4.8 17.7 0.00 1.73 0.89 75 1011.5
20260506140722 10 319 4.8 17.7 0.00 1.73 0.89 77 1011.6
20260506140649 10 332 6.4 17.7 0.00 1.73 0.89 77 1011.6
20260506134722 9 328 6.4 17.7 0.00 1.73 0.89 77 1011.4
20260506134211 9 344 4.8 20.9 0.00 1.73 0.89 79 1011.3
20260506132723 8 317 4.8 14.5 0.00 1.73 0.89 80 1011.4
20260506131722 8 342 6.4 19.3 0.00 1.73 0.89 80 1011.1
20260506130723 8 323 4.8 14.5 0.00 1.73 0.89 82 1010.9
20260506125716 8 332 4.8 12.9 0.00 1.73 0.89 82 1011.1